Temp
-14 -15 -14 -14 -14 -14 -14 -14 -14 -13 -13 -13 -13 -13 -13 -14 -14 -14 -14 -14 -14 -14 -14 -14 -13 -13 -13 -13 -13 -14 -14 -14
-14 -14 -14 -14 -14 -14 -14 -14 -14 -14 -14 -14 -13 -14 -14 -14 -14 -14 -14 -14 -14 -14 -14 -14 -14 -14 -13 -13 -14 -14 -14 -14
-14 -14 -15 -15 -14 -14 -14 -14 -14 -14 -14 -14 -14 -14 -14 -15 -15 -14 -14 -14 -14 -14 -15 -14 -14 -14 -14 -14 -14 -14 -15 -14
-15 -15 -15 -15 -15 -14 -15 -14 -14 -14 -14 -14 -15 -15 -15 -15 -15 -15 -15 -15 -15 -15 -15 -15 -15 -15 -15 -15 -15 -15 -15 -15
-15 -15 -15 -14 -14 -14 -14 -14 -14 -14 -14 -15 -15 -15 -16 -15 -15 -15 -15 -15 -15 -15 -15 -15 -15 -15 -15 -15 -15 -15 -15 -15
-14 -14 -13 -14 -14 -14 -14 -14 -14 -14 -14 -15 -16 -16 -16 -15 -15 -15 -15 -14 -15 -15 -16 -15 -15 -16 -16 -15 -15 -15 -16 -15
-14 -14 -15 -15 -15 -15 -15 -15 -15 -15 -16 -16 -16 -16 -16 -16 -16 -16 -15 -15 -15 -16 -16 -16 -16 -15 -15 -15 -15 -15 -15 -16
-15 -14 -15 -15 -15 -15 -15 -15 -15 -15 -15 -15 -15 -16 -16 -16 -16 -16 -16 -16 -16 -16 -16 -16 -16 -16 -16 -16 -16 -15 -15 -15
-14 -15 -15 -15 -15 -15 -14 -15 -16 -17 -16 -15 -16 -16 -16 -16 -17 -17 -17 -16 -16 -16 -16 -16 -16 -16 -16 -16 -16 -15 -15 -15
-15 -15 -15 -15 -15 -15 -15 -15 -16 -16 -16 -16 -16 -17 -17 -17 -17 -17 -16 -16 -17 -16 -16 -16 -16 -16 -16 -16 -16 -16 -16 -16
-15 -15 -15 -15 -14 -14 -15 -16 -17 -16 -16 -16 -16 -17 -17 -17 -17 -17 -17 -17 -17 -17 -17 -17 -16 -17 -17 -17 -16 -16 -16 -16
-15 -15 -15 -14 -15 -16 -15 -16 -16 -16 -16 -17 -17 -17 -17 -17 -17 -17 -17 -17 -17 -17 -17 -17 -17 -17 -17 -17 -17 -17 -17 -18
-15 -16 -16 -15 -15 -16 -16 -16 -16 -16 -17 -17 -18 -18 -18 -18 -17 -18 -17 -17 -17 -17 -18 -18 -18 -18 -18 -18 -19 -19 -19 -19
-15 -16 -16 -16 -16 -17 -16 -16 -16 -16 -17 -17 -17 -17 -18 -18 -18 -18 -18 -18 -18 -18 -19 -19 -19 -19 -19 -19 -19 -19 -19 -20
-16 -16 -16 -16 -16 -16 -16 -17 -17 -17 -17 -17 -18 -18 -18 -18 -19 -19 -19 -19 -19 -19 -19 -19 -19 -19 -19 -19 -19 -19 -19 -20
-17 -17 -17 -17 -16 -16 -16 -17 -17 -18 -18 -19 -19 -19 -19 -19 -19 -19 -19 -19 -19 -19 -19 -19 -19 -19 -19 -19 -20 -20 -20 -20
-17 -17 -16 -17 -18 -18 -19 -19 -19 -19 -19 -19 -19 -19 -18 -18 -18 -19 -18 -19 -19 -19 -19 -19 -19 -20 -20 -21 -22 -23 -23 -24
-16 -16 -17 -17 -18 -18 -18 -18 -18 -18 -18 -18 -19 -19 -18 -18 -18 -19 -19 -19 -19 -19 -19 -20 -20 -21 -22 -23 -24 -25 -25 -26
-16 -16 -17 -17 -17 -18 -18 -18 -18 -19 -19 -18 -19 -18 -19 -19 -19 -19 -19 -19 -19 -20 -20 -21 -22 -23 -24 -24 -26 -27 -29 -30
-16 -16 -17 -17 -17 -17 -18 -18 -18 -18 -19 -19 -19 -19 -19 -19 -19 -19 -20 -20 -20 -21 -22 -22 -23 -24 -26 -27 -29 -30 -31 -31
Height
5838 5839 5840 5839 5838 5840 5839 5839 5838 5838 5839 5838 5838 5836 5835 5832 5831 5829 5827 5825 5823 5822 5820 5819 5818 5814 5812 5810 5808 5806 5804 5803
5835 5836 5837 5837 5837 5837 5836 5836 5836 5836 5835 5834 5834 5832 5831 5829 5827 5824 5822 5820 5818 5816 5815 5814 5811 5808 5806 5804 5802 5800 5798 5796
5833 5834 5834 5834 5834 5833 5833 5833 5833 5832 5831 5831 5830 5828 5827 5825 5822 5820 5817 5815 5812 5811 5808 5806 5804 5802 5800 5797 5796 5795 5793 5791
5831 5831 5831 5831 5830 5830 5830 5830 5830 5829 5827 5826 5825 5823 5822 5819 5817 5814 5812 5810 5808 5805 5803 5800 5797 5795 5793 5792 5791 5791 5789 5786
5826 5827 5827 5828 5827 5826 5826 5825 5824 5824 5822 5822 5820 5818 5815 5812 5811 5808 5807 5805 5802 5800 5796 5793 5790 5789 5787 5786 5785 5784 5783 5780
5825 5827 5827 5824 5824 5825 5825 5824 5822 5818 5816 5813 5812 5811 5809 5806 5804 5802 5800 5798 5795 5792 5789 5787 5785 5784 5781 5779 5778 5777 5775 5774
5824 5824 5823 5823 5824 5824 5824 5821 5817 5814 5811 5809 5805 5803 5802 5799 5797 5796 5794 5791 5788 5785 5783 5780 5778 5776 5774 5772 5770 5769 5767 5765
5822 5821 5821 5821 5821 5822 5820 5817 5812 5809 5808 5804 5802 5798 5795 5793 5792 5789 5785 5782 5780 5778 5774 5772 5770 5768 5765 5763 5761 5759 5757 5755
5819 5819 5819 5818 5817 5815 5814 5811 5805 5803 5805 5799 5797 5791 5787 5785 5782 5781 5777 5773 5771 5768 5765 5763 5760 5757 5754 5752 5750 5748 5746 5743
5816 5816 5815 5815 5813 5811 5810 5807 5804 5800 5796 5794 5788 5786 5781 5777 5774 5770 5767 5763 5761 5759 5756 5752 5750 5747 5744 5741 5737 5735 5733 5730
5813 5813 5812 5810 5808 5802 5796 5798 5796 5792 5789 5785 5781 5776 5771 5768 5763 5760 5757 5753 5750 5747 5744 5742 5739 5735 5731 5727 5723 5720 5716 5714
5810 5809 5806 5800 5796 5796 5792 5790 5785 5782 5778 5774 5770 5766 5761 5757 5753 5749 5745 5742 5739 5736 5732 5728 5724 5719 5714 5710 5706 5702 5697 5693
5805 5803 5800 5796 5792 5788 5786 5782 5777 5772 5768 5764 5760 5755 5751 5747 5742 5737 5734 5731 5726 5720 5714 5710 5705 5701 5696 5692 5686 5681 5675 5670
5798 5794 5791 5788 5785 5781 5777 5771 5767 5764 5759 5754 5750 5746 5741 5735 5730 5726 5722 5716 5710 5705 5699 5693 5687 5682 5674 5668 5663 5658 5653 5644
5792 5789 5785 5781 5777 5773 5768 5762 5758 5753 5748 5744 5740 5735 5730 5725 5719 5714 5708 5702 5695 5688 5682 5674 5666 5659 5650 5639 5631 5626 5617 5615
5785 5781 5777 5772 5767 5762 5758 5753 5748 5744 5739 5734 5730 5725 5720 5714 5708 5701 5693 5686 5678 5670 5661 5650 5639 5630 5620 5612 5602 5594 5585 5583
5778 5774 5769 5763 5759 5754 5750 5746 5741 5736 5731 5725 5719 5714 5708 5701 5694 5685 5676 5666 5655 5645 5635 5627 5617 5606 5598 5588 5578 5566 5553 5543
5772 5766 5761 5756 5752 5748 5743 5738 5733 5726 5720 5713 5707 5701 5694 5686 5677 5667 5657 5646 5636 5626 5615 5605 5595 5583 5570 5557 5544 5532 5520 5510
5764 5759 5754 5749 5744 5739 5733 5727 5721 5715 5708 5701 5695 5687 5679 5670 5660 5650 5639 5629 5618 5607 5595 5581 5568 5555 5539 5526 5514 5505 5496 5488
5759 5754 5749 5743 5736 5730 5724 5717 5710 5703 5695 5688 5680 5673 5665 5655 5645 5634 5623 5611 5597 5584 5569 5553 5538 5524 5511 5499 5490 5483 5477 5472
Wind_Speed
13 11 11 12 12 12 9 10 13 15 17 19 21 23 25 26 28 29 30 33 33 32 30 31 31 30 31 31 30 29 31 32
10 10 10 12 10 9 11 15 18 19 20 22 25 26 28 28 27 29 32 32 34 32 31 35 33 32 31 32 30 27 26 27
10 10 10 9 10 12 15 17 18 20 22 26 27 28 28 26 29 34 35 33 34 33 36 37 36 34 32 31 31 30 26 25
7 7 9 11 12 15 15 18 20 24 28 29 27 27 30 29 32 36 34 35 35 36 39 40 36 34 32 29 25 25 26 25
9 9 10 11 14 16 18 21 24 27 30 29 29 30 31 34 34 35 33 34 33 35 36 35 32 29 26 26 24 24 24 25
8 8 13 17 18 19 22 27 31 33 36 31 28 31 33 34 33 34 33 31 34 34 33 32 31 28 27 27 28 28 28 27
10 13 14 18 20 22 25 27 30 28 29 27 27 30 30 32 31 33 29 30 34 37 36 34 34 33 33 33 33 33 32 32
12 16 18 21 24 25 30 33 34 34 31 27 22 24 25 31 31 33 34 37 40 40 38 36 35 34 34 36 36 37 38 39
20 20 20 26 22 24 25 31 36 39 27 25 23 32 26 33 30 37 37 40 40 39 38 36 37 39 41 43 45 45 46 46
21 22 23 18 20 20 27 28 26 26 39 31 27 44 50 35 43 39 43 41 42 42 41 41 45 48 49 50 53 54 54 55
22 22 18 19 23 30 26 38 41 44 44 38 35 36 40 45 46 47 43 41 43 45 47 49 51 53 56 59 61 63 64 65
19 20 18 29 33 35 40 45 46 48 50 44 40 43 43 42 42 42 42 45 49 51 53 55 58 62 64 67 69 69 70 71
21 25 34 39 43 44 45 47 52 53 48 40 37 38 39 40 41 44 47 51 55 57 59 62 65 68 72 73 71 71 74 77
29 34 39 40 44 46 51 55 53 49 43 40 39 39 40 43 47 51 56 59 59 60 63 66 70 72 74 77 80 81 83 86
35 41 35 39 44 48 51 47 45 42 41 42 44 46 48 51 56 59 60 58 61 66 70 72 77 80 85 90 93 95 97 98
38 42 43 47 50 48 50 50 47 46 47 48 49 50 52 55 58 60 61 65 70 74 78 82 88 91 95 98 100 105 108 107
36 42 42 44 45 46 44 42 43 45 47 49 51 54 56 59 62 65 70 75 78 82 86 90 93 96 98 101 103 102 101 99
35 39 43 45 48 48 48 49 51 53 54 54 54 57 61 63 67 72 76 79 83 87 91 95 98 100 102 104 100 96 91 84
35 38 42 45 47 48 50 51 51 52 54 57 59 61 64 68 73 77 80 84 89 93 97 98 101 103 101 96 86 77 69 62
35 38 42 45 47 50 51 52 53 55 58 60 62 65 69 73 76 79 83 88 92 95 100 105 104 101 88 76 68 59 54 51
Wind_Direction
267 254 251 250 252 244 250 266 271 274 275 275 278 283 288 295 304 309 310 309 306 300 296 294 295 294 293 293 295 297 294 290
237 242 242 240 242 253 270 272 273 276 280 283 280 285 292 298 303 306 307 301 303 295 300 307 302 294 291 294 297 295 294 292
225 222 224 236 251 262 268 275 281 282 281 281 285 288 293 300 304 305 305 302 303 298 308 312 306 301 298 296 297 300 300 298
210 222 237 245 254 266 277 281 284 282 279 278 279 285 288 293 301 304 300 305 305 300 304 306 299 297 297 296 295 294 296 294
212 226 242 259 262 263 267 273 279 279 279 280 280 279 282 287 293 299 298 302 304 298 298 296 292 290 289 289 288 287 287 290
240 261 261 255 262 277 289 293 288 290 277 274 271 273 282 284 289 289 293 297 298 296 296 290 287 283 281 281 284 287 290 289
248 252 264 276 284 292 294 292 291 278 277 277 280 276 277 282 284 286 286 296 301 297 297 292 288 285 285 287 288 287 289 288
271 272 278 286 291 298 295 287 277 273 279 279 287 298 289 290 285 293 292 296 301 294 290 288 287 286 286 285 285 284 284 283
276 282 290 298 302 294 297 300 278 269 271 287 281 295 287 285 279 296 293 293 293 289 286 284 283 284 287 286 286 287 287 286
283 291 297 292 290 291 295 271 296 298 281 294 275 299 299 274 295 294 295 296 293 289 287 287 287 291 292 292 291 290 289 288
288 291 292 294 290 276 293 304 312 311 309 301 295 288 283 288 294 296 297 295 294 292 294 295 294 295 296 296 294 292 290 288
293 291 276 284 299 306 309 307 310 312 310 306 296 291 292 293 294 296 297 296 297 298 298 297 297 300 300 299 298 296 294 292
299 299 303 304 306 312 312 311 311 313 311 305 300 297 296 296 296 297 298 299 302 303 305 304 303 302 301 299 297 295 296 294
309 309 304 305 309 307 306 306 308 306 304 300 298 298 299 298 298 299 302 305 305 303 302 302 304 305 303 300 299 298 297 297
303 307 300 297 296 298 307 312 311 310 310 307 305 304 303 302 304 304 302 302 302 303 302 302 305 306 306 306 304 301 299 298
309 303 301 302 305 311 315 315 313 312 310 306 303 300 297 295 297 301 303 303 304 304 306 306 308 308 306 306 305 302 299 296
306 307 298 312 314 315 309 306 301 299 297 295 293 293 295 299 302 303 305 306 307 308 308 308 307 306 305 304 302 299 296 293
313 318 315 312 308 305 301 296 295 296 298 299 299 301 302 304 305 307 308 308 308 307 307 307 306 305 305 305 302 299 295 293
320 316 313 310 306 303 301 299 300 302 301 301 303 306 308 308 307 308 308 308 309 309 308 307 306 307 307 304 301 296 293 293
314 311 307 307 307 308 307 307 305 304 304 306 308 309 308 308 308 308 309 310 311 309 308 308 309 309 306 303 300 300 297 295